Location: LDNL
(36.4545°S, 141.6685°E)
Time: 14:21:23
(UTC+11:00)

Transit 2A Rocket - Visible Passes

Search period start: 28 January 2022 00:00
Search period end: 07 February 2022 00:00
Orbit: 585 x 917 km, 66.7° (Epoch: 27 January)

Date Brightness Start Highest point End Pass type
(mag) Time Alt. Az. Time Alt. Az. Time Alt. Az.
31 Jan 6.6 05:56:35 10° NNE 06:00:07 24° ENE 06:03:38 10° SE visible
01 Feb 7.3 05:15:59 10° NE 05:17:41 12° ENE 05:19:22 10° E visible
02 Feb 4.6 06:12:39 10° NNW 06:17:00 80° ENE 06:21:19 10° SSE visible
03 Feb 5.7 05:30:23 10° N 05:34:24 38° ENE 05:38:24 10° SE visible
04 Feb 6.7 04:49:20 12° NNE 04:51:55 19° ENE 04:54:58 10° ESE visible
05 Feb 4.5 05:48:12 18° NW 05:51:23 65° WSW 05:55:41 10° SSE visible
06 Feb 4.8 05:07:04 34° N 05:08:43 61° ENE 05:12:59 10° SE visible
